Time,TemperatureF,DewpointF,PressureIn,WindDirection,WindDirectionDegrees,WindSpeedMPH,WindSpeedGustMPH,Humidity,HourlyPrecipIn,Conditions,Clouds,dailyrainin,SoftwareType,DateUTC
2013-03-06 00:00:00,35.0,33.0,29.58,North,360,7.0,7.0,95,0.00,,,0.00,Rainwise IP-100,2013-03-06 05:00:00,
2013-03-06 00:05:00,35.0,33.0,29.58,NNW,337,5.0,9.0,95,0.00,,,0.00,Rainwise IP-100,2013-03-06 05:05:00,
2013-03-06 00:10:00,35.0,33.0,29.57,NNW,337,5.0,10.0,95,0.00,,,0.00,Rainwise IP-100,2013-03-06 05:10:00,
2013-03-06 00:15:00,35.0,33.0,29.57,North,360,3.0,8.0,95,0.00,,,0.00,Rainwise IP-100,2013-03-06 05:15:00,
2013-03-06 00:20:00,35.0,33.0,29.57,NNW,337,6.0,7.0,95,0.00,,,0.00,Rainwise IP-100,2013-03-06 05:20:00,
2013-03-06 00:25:00,35.0,33.0,29.57,NNW,337,5.0,7.0,95,0.00,,,0.00,Rainwise IP-100,2013-03-06 05:25:00,
2013-03-06 00:30:00,35.0,33.0,29.57,North,360,5.0,10.0,95,0.00,,,0.00,Rainwise IP-100,2013-03-06 05:30:00,
2013-03-06 00:35:00,35.0,33.0,29.57,North,360,6.0,7.0,95,0.00,,,0.00,Rainwise IP-100,2013-03-06 05:35:00,
2013-03-06 00:40:00,35.0,33.0,29.57,North,360,9.0,12.0,95,0.00,,,0.00,Rainwise IP-100,2013-03-06 05:40:00,
2013-03-06 00:45:00,35.0,33.0,29.57,NNE,22,9.0,12.0,95,0.00,,,0.00,Rainwise IP-100,2013-03-06 05:45:00,
2013-03-06 00:50:00,35.0,33.0,29.57,North,360,5.0,12.0,95,0.00,,,0.00,Rainwise IP-100,2013-03-06 05:50:00,
2013-03-06 00:55:00,35.0,33.0,29.57,NE,45,8.0,12.0,95,0.00,,,0.00,Rainwise IP-100,2013-03-06 05:55:00,
2013-03-06 01:00:00,35.0,33.0,29.57,NE,45,6.0,12.0,95,0.00,,,0.00,Rainwise IP-100,2013-03-06 06:00:00,
2013-03-06 01:05:00,35.0,33.0,29.57,NE,45,3.0,10.0,95,0.00,,,0.00,Rainwise IP-100,2013-03-06 06:05:00,
2013-03-06 01:10:00,35.0,33.0,29.57,East,90,5.0,12.0,95,0.00,,,0.00,Rainwise IP-100,2013-03-06 06:10:00,
2013-03-06 01:15:00,35.0,33.0,29.57,NE,45,6.0,12.0,95,0.00,,,0.00,Rainwise IP-100,2013-03-06 06:15:00,
2013-03-06 01:20:00,35.0,33.0,29.57,ENE,67,3.0,12.0,95,0.00,,,0.00,Rainwise IP-100,2013-03-06 06:20:00,
2013-03-06 01:25:00,35.0,33.0,29.57,ENE,67,9.0,9.0,95,0.00,,,0.00,Rainwise IP-100,2013-03-06 06:25:00,
2013-03-06 01:30:00,35.0,33.0,29.57,NNE,22,10.0,10.0,95,0.00,,,0.00,Rainwise IP-100,2013-03-06 06:30:00,
2013-03-06 01:35:00,35.0,33.0,29.58,NNE,22,8.0,13.0,95,0.00,,,0.00,Rainwise IP-100,2013-03-06 06:35:00,
2013-03-06 01:40:00,36.0,35.0,29.58,ENE,67,7.0,12.0,95,0.00,,,0.00,Rainwise IP-100,2013-03-06 06:40:00,
2013-03-06 01:45:00,36.0,35.0,29.57,NNE,22,4.0,12.0,95,0.00,,,0.00,Rainwise IP-100,2013-03-06 06:45:00,
2013-03-06 01:50:00,36.0,35.0,29.57,NNE,22,3.0,19.0,95,0.00,,,0.00,Rainwise IP-100,2013-03-06 06:50:00,
2013-03-06 01:55:00,36.0,35.0,29.57,ENE,67,8.0,19.0,95,0.00,,,0.00,Rainwise IP-100,2013-03-06 06:55:00,
2013-03-06 02:00:00,36.0,35.0,29.57,NE,45,9.0,16.0,95,0.00,,,0.00,Rainwise IP-100,2013-03-06 07:00:00,
2013-03-06 02:05:00,36.0,35.0,29.57,North,360,13.0,13.0,95,0.00,,,0.00,Rainwise IP-100,2013-03-06 07:05:00,
2013-03-06 02:10:00,36.0,35.0,29.57,NNE,22,6.0,16.0,95,0.00,,,0.00,Rainwise IP-100,2013-03-06 07:10:00,
2013-03-06 02:15:00,36.0,35.0,29.57,NNE,22,10.0,13.0,95,0.00,,,0.00,Rainwise IP-100,2013-03-06 07:15:00,
2013-03-06 02:20:00,36.0,35.0,29.57,North,360,7.0,15.0,95,0.00,,,0.00,Rainwise IP-100,2013-03-06 07:20:00,
2013-03-06 02:25:00,36.0,35.0,29.57,North,360,8.0,12.0,95,0.00,,,0.00,Rainwise IP-100,2013-03-06 07:25:00,
2013-03-06 02:30:00,36.0,35.0,29.56,ENE,67,9.0,20.0,95,0.00,,,0.00,Rainwise IP-100,2013-03-06 07:30:00,
2013-03-06 02:31:00,36.0,35.0,29.56,NE,45,14.0,20.0,95,0.00,,,0.00,Rainwise IP-100,2013-03-06 07:31:00,
2013-03-06 02:36:00,36.0,35.0,29.56,North,360,3.0,20.0,95,0.00,,,0.00,Rainwise IP-100,2013-03-06 07:36:00,
2013-03-06 02:41:00,36.0,35.0,29.56,North,360,8.0,17.0,95,0.00,,,0.00,Rainwise IP-100,2013-03-06 07:41:00,
2013-03-06 02:46:00,36.0,35.0,29.56,NE,45,9.0,16.0,95,0.00,,,0.00,Rainwise IP-100,2013-03-06 07:46:00,
2013-03-06 02:51:00,36.0,35.0,29.56,NE,45,9.0,13.0,95,0.00,,,0.00,Rainwise IP-100,2013-03-06 07:51:00,
2013-03-06 02:56:00,36.0,35.0,29.56,NE,45,8.0,17.0,95,0.00,,,0.00,Rainwise IP-100,2013-03-06 07:56:00,
2013-03-06 03:01:00,36.0,35.0,29.56,North,360,10.0,15.0,95,0.00,,,0.00,Rainwise IP-100,2013-03-06 08:01:00,
2013-03-06 03:06:00,36.0,35.0,29.56,ENE,67,5.0,17.0,95,0.00,,,0.00,Rainwise IP-100,2013-03-06 08:06:00,
2013-03-06 03:11:00,36.0,35.0,29.56,North,360,3.0,17.0,95,0.00,,,0.00,Rainwise IP-100,2013-03-06 08:11:00,
2013-03-06 03:16:00,36.0,35.0,29.57,NE,45,10.0,12.0,95,0.00,,,0.00,Rainwise IP-100,2013-03-06 08:16:00,
2013-03-06 03:21:00,36.0,35.0,29.57,East,90,3.0,12.0,95,0.00,,,0.00,Rainwise IP-100,2013-03-06 08:21:00,
2013-03-06 03:26:00,36.0,35.0,29.57,North,360,5.0,13.0,95,0.00,,,0.00,Rainwise IP-100,2013-03-06 08:26:00,
2013-03-06 03:31:00,36.0,35.0,29.57,NE,45,8.0,12.0,95,0.00,,,0.00,Rainwise IP-100,2013-03-06 08:31:00,
2013-03-06 03:36:00,36.0,35.0,29.57,ENE,67,2.0,15.0,95,0.00,,,0.00,Rainwise IP-100,2013-03-06 08:36:00,
2013-03-06 03:41:00,36.0,35.0,29.57,NE,45,9.0,16.0,95,0.00,,,0.00,Rainwise IP-100,2013-03-06 08:41:00,
2013-03-06 03:46:00,36.0,35.0,29.57,ENE,67,6.0,14.0,95,0.00,,,0.00,Rainwise IP-100,2013-03-06 08:46:00,
2013-03-06 03:51:00,35.0,33.0,29.57,NNW,337,9.0,15.0,95,0.00,,,0.00,Rainwise IP-100,2013-03-06 08:51:00,
2013-03-06 03:57:00,35.0,33.0,29.57,ENE,67,12.0,15.0,95,0.00,,,0.00,Rainwise IP-100,2013-03-06 08:57:00,
2013-03-06 04:02:00,35.0,33.0,29.57,NNW,337,9.0,13.0,95,0.00,,,0.00,Rainwise IP-100,2013-03-06 09:02:00,
2013-03-06 04:07:00,35.0,33.0,29.59,ENE,67,3.0,12.0,95,0.00,,,0.00,Rainwise IP-100,2013-03-06 09:07:00,
2013-03-06 04:12:00,35.0,33.0,29.59,ENE,67,7.0,13.0,95,0.00,,,0.00,Rainwise IP-100,2013-03-06 09:12:00,
2013-03-06 04:17:00,35.0,33.0,29.58,North,360,7.0,12.0,95,0.00,,,0.00,Rainwise IP-100,2013-03-06 09:17:00,
2013-03-06 04:22:00,35.0,33.0,29.58,North,360,4.0,13.0,95,0.00,,,0.00,Rainwise IP-100,2013-03-06 09:22:00,
2013-03-06 04:27:00,35.0,33.0,29.59,NNW,337,6.0,13.0,95,0.00,,,0.00,Rainwise IP-100,2013-03-06 09:27:00,
2013-03-06 04:32:00,35.0,33.0,29.59,NNE,22,6.0,13.0,95,0.00,,,0.00,Rainwise IP-100,2013-03-06 09:32:00,
2013-03-06 04:37:00,35.0,33.0,29.59,NNE,22,11.0,13.0,95,0.00,,,0.00,Rainwise IP-100,2013-03-06 09:37:00,
2013-03-06 04:42:00,35.0,33.0,29.59,North,360,9.0,18.0,95,0.00,,,0.00,Rainwise IP-100,2013-03-06 09:42:00,
2013-03-06 04:47:00,35.0,33.0,29.59,NNE,22,14.0,14.0,95,0.06,,,0.01,Rainwise IP-100,2013-03-06 09:47:00,
2013-03-06 04:52:00,35.0,33.0,29.59,ESE,112,6.0,16.0,95,0.06,,,0.01,Rainwise IP-100,2013-03-06 09:52:00,
2013-03-06 04:57:00,35.0,33.0,29.59,NNE,22,10.0,16.0,95,0.00,,,0.01,Rainwise IP-100,2013-03-06 09:57:00,
2013-03-06 05:02:00,35.0,33.0,29.59,ENE,67,6.0,13.0,95,0.00,,,0.01,Rainwise IP-100,2013-03-06 10:02:00,
2013-03-06 05:07:00,35.0,33.0,29.59,NNE,22,9.0,13.0,95,0.00,,,0.01,Rainwise IP-100,2013-03-06 10:07:00,
2013-03-06 05:12:00,35.0,33.0,29.59,ENE,67,3.0,11.0,95,0.00,,,0.01,Rainwise IP-100,2013-03-06 10:12:00,
2013-03-06 05:17:00,35.0,33.0,29.59,NNE,22,6.0,9.0,95,0.00,,,0.01,Rainwise IP-100,2013-03-06 10:17:00,
2013-03-06 05:22:00,35.0,33.0,29.59,NE,45,6.0,10.0,95,0.00,,,0.01,Rainwise IP-100,2013-03-06 10:22:00,
2013-03-06 05:27:00,35.0,33.0,29.58,East,90,4.0,14.0,95,0.06,,,0.02,Rainwise IP-100,2013-03-06 10:27:00,
2013-03-06 05:32:00,35.0,33.0,29.58,NNE,22,8.0,9.0,95,0.06,,,0.02,Rainwise IP-100,2013-03-06 10:32:00,
2013-03-06 05:37:00,35.0,33.0,29.58,NNE,22,1.0,15.0,95,0.00,,,0.02,Rainwise IP-100,2013-03-06 10:37:00,
2013-03-06 05:42:00,35.0,33.0,29.58,ENE,67,7.0,15.0,95,0.06,,,0.03,Rainwise IP-100,2013-03-06 10:42:00,
2013-03-06 05:47:00,35.0,33.0,29.58,NE,45,12.0,15.0,95,0.06,,,0.03,Rainwise IP-100,2013-03-06 10:47:00,
2013-03-06 05:52:00,35.0,33.0,29.58,NNE,22,7.0,15.0,95,0.00,,,0.03,Rainwise IP-100,2013-03-06 10:52:00,
2013-03-06 05:57:00,35.0,33.0,29.58,NE,45,9.0,13.0,95,0.06,,,0.04,Rainwise IP-100,2013-03-06 10:57:00,
2013-03-06 06:02:00,35.0,33.0,29.58,ESE,112,3.0,15.0,95,0.06,,,0.04,Rainwise IP-100,2013-03-06 11:02:00,
2013-03-06 06:07:00,35.0,33.0,29.59,ENE,67,6.0,9.0,95,0.00,,,0.04,Rainwise IP-100,2013-03-06 11:07:00,
2013-03-06 06:12:00,35.0,33.0,29.59,East,90,7.0,13.0,95,0.00,,,0.04,Rainwise IP-100,2013-03-06 11:12:00,
2013-03-06 06:17:00,35.0,33.0,29.58,East,90,14.0,16.0,95,0.00,,,0.04,Rainwise IP-100,2013-03-06 11:17:00,
2013-03-06 06:22:00,36.0,35.0,29.58,East,90,6.0,16.0,95,0.06,,,0.05,Rainwise IP-100,2013-03-06 11:22:00,
2013-03-06 06:27:00,36.0,35.0,29.58,ESE,112,5.0,16.0,95,0.06,,,0.05,Rainwise IP-100,2013-03-06 11:27:00,
2013-03-06 06:32:00,36.0,35.0,29.58,East,90,0.0,15.0,95,0.00,,,0.05,Rainwise IP-100,2013-03-06 11:32:00,
2013-03-06 06:37:00,36.0,35.0,29.59,East,90,7.0,12.0,95,0.00,,,0.05,Rainwise IP-100,2013-03-06 11:37:00,
2013-03-06 06:42:00,36.0,35.0,29.59,East,90,4.0,15.0,95,0.00,,,0.05,Rainwise IP-100,2013-03-06 11:42:00,
2013-03-06 06:47:00,36.0,35.0,29.59,NE,45,16.0,17.0,95,0.00,,,0.05,Rainwise IP-100,2013-03-06 11:47:00,
2013-03-06 06:52:00,36.0,35.0,29.59,East,90,10.0,16.0,95,0.06,,,0.06,Rainwise IP-100,2013-03-06 11:52:00,
2013-03-06 06:57:00,36.0,35.0,29.59,East,90,15.0,16.0,95,0.06,,,0.06,Rainwise IP-100,2013-03-06 11:57:00,
2013-03-06 07:02:00,36.0,35.0,29.59,East,90,10.0,17.0,95,0.00,,,0.06,Rainwise IP-100,2013-03-06 12:02:00,
2013-03-06 07:07:00,36.0,35.0,29.60,ESE,112,11.0,16.0,95,0.00,,,0.06,Rainwise IP-100,2013-03-06 12:07:00,
2013-03-06 07:12:00,36.0,35.0,29.60,ESE,112,14.0,15.0,95,0.00,,,0.06,Rainwise IP-100,2013-03-06 12:12:00,
2013-03-06 07:17:00,36.0,35.0,29.61,East,90,7.0,27.0,95,0.00,,,0.06,Rainwise IP-100,2013-03-06 12:17:00,
2013-03-06 07:22:00,36.0,35.0,29.61,East,90,8.0,18.0,95,0.00,,,0.06,Rainwise IP-100,2013-03-06 12:22:00,
2013-03-06 07:27:00,36.0,35.0,29.61,ENE,67,11.0,13.0,95,0.00,,,0.06,Rainwise IP-100,2013-03-06 12:27:00,
2013-03-06 07:32:00,36.0,35.0,29.61,ENE,67,7.0,25.0,95,0.00,,,0.06,Rainwise IP-100,2013-03-06 12:32:00,
2013-03-06 07:37:00,36.0,35.0,29.61,NNE,22,9.0,16.0,95,0.00,,,0.06,Rainwise IP-100,2013-03-06 12:37:00,
2013-03-06 07:42:00,37.0,36.0,29.61,ESE,112,3.0,17.0,94,0.00,,,0.06,Rainwise IP-100,2013-03-06 12:42:00,
2013-03-06 07:47:00,37.0,36.0,29.62,ESE,112,3.0,12.0,94,0.00,,,0.06,Rainwise IP-100,2013-03-06 12:47:00,
2013-03-06 07:52:00,37.0,36.0,29.62,NE,45,18.0,18.0,95,0.00,,,0.06,Rainwise IP-100,2013-03-06 12:52:00,
2013-03-06 07:57:00,37.0,36.0,29.62,ESE,112,6.0,23.0,95,0.00,,,0.06,Rainwise IP-100,2013-03-06 12:57:00,
2013-03-06 08:02:00,37.0,36.0,29.62,ESE,112,9.0,23.0,96,0.00,,,0.06,Rainwise IP-100,2013-03-06 13:02:00,
2013-03-06 08:07:00,37.0,36.0,29.63,ESE,112,6.0,13.0,96,0.00,,,0.06,Rainwise IP-100,2013-03-06 13:07:00,
2013-03-06 08:12:00,37.0,36.0,29.63,East,90,10.0,16.0,94,0.00,,,0.06,Rainwise IP-100,2013-03-06 13:12:00,
2013-03-06 08:17:00,37.0,35.0,29.62,SE,135,6.0,26.0,93,0.00,,,0.06,Rainwise IP-100,2013-03-06 13:17:00,
2013-03-06 08:22:00,37.0,36.0,29.62,East,90,8.0,17.0,95,0.00,,,0.06,Rainwise IP-100,2013-03-06 13:22:00,
2013-03-06 08:27:00,36.0,35.0,29.63,ESE,112,7.0,27.0,93,0.06,,,0.07,Rainwise IP-100,2013-03-06 13:27:00,
2013-03-06 08:32:00,36.0,35.0,29.63,ENE,67,4.0,15.0,94,0.06,,,0.07,Rainwise IP-100,2013-03-06 13:32:00,
2013-03-06 08:37:00,37.0,36.0,29.62,East,90,6.0,17.0,94,0.00,,,0.07,Rainwise IP-100,2013-03-06 13:37:00,
2013-03-06 08:42:00,37.0,35.0,29.62,ENE,67,9.0,16.0,93,0.00,,,0.07,Rainwise IP-100,2013-03-06 13:42:00,
2013-03-06 08:47:00,37.0,35.0,29.62,SE,135,3.0,17.0,90,0.00,,,0.07,Rainwise IP-100,2013-03-06 13:47:00,
2013-03-06 08:52:00,37.0,35.0,29.62,ENE,67,9.0,16.0,89,0.00,,,0.07,Rainwise IP-100,2013-03-06 13:52:00,
2013-03-06 08:57:00,37.0,33.0,29.61,East,90,8.0,17.0,87,0.00,,,0.07,Rainwise IP-100,2013-03-06 13:57:00,
2013-03-06 09:02:00,37.0,33.0,29.61,East,90,7.0,18.0,87,0.00,,,0.07,Rainwise IP-100,2013-03-06 14:02:00,
2013-03-06 09:07:00,37.0,35.0,29.62,East,90,7.0,15.0,89,0.00,,,0.07,Rainwise IP-100,2013-03-06 14:07:00,
2013-03-06 09:12:00,37.0,33.0,29.62,ENE,67,13.0,18.0,87,0.00,,,0.07,Rainwise IP-100,2013-03-06 14:12:00,
2013-03-06 09:17:00,37.0,33.0,29.61,ENE,67,7.0,21.0,87,0.00,,,0.07,Rainwise IP-100,2013-03-06 14:17:00,
2013-03-06 09:22:00,37.0,33.0,29.61,NE,45,10.0,24.0,87,0.00,,,0.07,Rainwise IP-100,2013-03-06 14:22:00,
2013-03-06 09:27:00,37.0,32.0,29.62,NE,45,10.0,25.0,84,0.00,,,0.07,Rainwise IP-100,2013-03-06 14:27:00,
2013-03-06 09:32:00,37.0,33.0,29.62,NE,45,13.0,19.0,86,0.00,,,0.07,Rainwise IP-100,2013-03-06 14:32:00,
2013-03-06 09:37:00,37.0,35.0,29.63,ENE,67,9.0,14.0,89,0.00,,,0.07,Rainwise IP-100,2013-03-06 14:37:00,
2013-03-06 09:42:00,37.0,35.0,29.63,ENE,67,13.0,13.0,90,0.00,,,0.07,Rainwise IP-100,2013-03-06 14:42:00,
2013-03-06 09:47:00,37.0,35.0,29.63,ENE,67,9.0,13.0,89,0.00,,,0.07,Rainwise IP-100,2013-03-06 14:47:00,
2013-03-06 09:52:00,38.0,36.0,29.63,East,90,10.0,21.0,92,0.00,,,0.07,Rainwise IP-100,2013-03-06 14:52:00,
2013-03-06 09:57:00,38.0,33.0,29.63,ENE,67,5.0,26.0,82,0.00,,,0.07,Rainwise IP-100,2013-03-06 14:57:00,
2013-03-06 10:02:00,38.0,35.0,29.63,ENE,67,6.0,17.0,85,0.00,,,0.07,Rainwise IP-100,2013-03-06 15:02:00,
2013-03-06 10:07:00,38.0,32.0,29.63,SE,135,2.0,12.0,80,0.00,,,0.07,Rainwise IP-100,2013-03-06 15:07:00,
2013-03-06 10:12:00,38.0,32.0,29.63,ESE,112,15.0,15.0,80,0.00,,,0.07,Rainwise IP-100,2013-03-06 15:12:00,
2013-03-06 10:17:00,38.0,33.0,29.63,ESE,112,15.0,22.0,83,0.00,,,0.07,Rainwise IP-100,2013-03-06 15:17:00,
2013-03-06 10:22:00,38.0,35.0,29.63,North,360,8.0,21.0,88,0.00,,,0.07,Rainwise IP-100,2013-03-06 15:22:00,
2013-03-06 10:27:00,36.0,35.0,29.63,ENE,67,4.0,20.0,93,0.00,,,0.07,Rainwise IP-100,2013-03-06 15:27:00,
2013-03-06 10:32:00,35.0,33.0,29.63,East,90,7.0,23.0,95,0.00,,,0.07,Rainwise IP-100,2013-03-06 15:32:00,
2013-03-06 10:37:00,35.0,33.0,29.64,ENE,67,8.0,16.0,95,0.00,,,0.07,Rainwise IP-100,2013-03-06 15:37:00,
2013-03-06 10:42:00,35.0,33.0,29.64,ESE,112,7.0,17.0,95,0.00,,,0.07,Rainwise IP-100,2013-03-06 15:42:00,
2013-03-06 10:47:00,35.0,33.0,29.64,SE,135,1.0,15.0,95,0.00,,,0.07,Rainwise IP-100,2013-03-06 15:47:00,
2013-03-06 10:52:00,34.0,33.0,29.64,East,90,19.0,19.0,95,0.00,,,0.07,Rainwise IP-100,2013-03-06 15:52:00,
2013-03-06 10:57:00,34.0,33.0,29.63,NE,45,6.0,19.0,95,0.06,,,0.08,Rainwise IP-100,2013-03-06 15:57:00,
2013-03-06 11:02:00,34.0,33.0,29.63,East,90,7.0,12.0,95,0.06,,,0.08,Rainwise IP-100,2013-03-06 16:02:00,
2013-03-06 11:07:00,34.0,33.0,29.63,ENE,67,16.0,18.0,95,0.06,,,0.09,Rainwise IP-100,2013-03-06 16:07:00,
2013-03-06 11:12:00,34.0,33.0,29.63,NE,45,16.0,24.0,95,0.12,,,0.10,Rainwise IP-100,2013-03-06 16:12:00,
2013-03-06 11:17:00,35.0,33.0,29.62,NE,45,8.0,21.0,95,0.12,,,0.11,Rainwise IP-100,2013-03-06 16:17:00,
2013-03-06 11:22:00,35.0,33.0,29.62,NNE,22,13.0,24.0,95,0.06,,,0.11,Rainwise IP-100,2013-03-06 16:22:00,
2013-03-06 11:27:00,35.0,33.0,29.58,ENE,67,6.0,31.0,95,0.06,,,0.12,Rainwise IP-100,2013-03-06 16:27:00,
2013-03-06 11:32:00,35.0,33.0,29.58,NE,45,9.0,19.0,95,0.06,,,0.12,Rainwise IP-100,2013-03-06 16:32:00,
2013-03-06 11:37:00,35.0,33.0,29.61,NE,45,17.0,17.0,95,0.00,,,0.12,Rainwise IP-100,2013-03-06 16:37:00,
2013-03-06 11:42:00,35.0,33.0,29.61,ENE,67,13.0,21.0,95,0.00,,,0.12,Rainwise IP-100,2013-03-06 16:42:00,
2013-03-06 11:47:00,34.0,33.0,29.62,ENE,67,6.0,20.0,95,0.00,,,0.12,Rainwise IP-100,2013-03-06 16:47:00,
2013-03-06 11:52:00,34.0,33.0,29.62,ENE,67,15.0,15.0,95,0.06,,,0.13,Rainwise IP-100,2013-03-06 16:52:00,
2013-03-06 11:57:00,35.0,33.0,29.61,ENE,67,10.0,22.0,95,0.06,,,0.13,Rainwise IP-100,2013-03-06 16:57:00,
2013-03-06 12:02:00,35.0,33.0,29.61,NNE,22,6.0,20.0,95,0.00,,,0.13,Rainwise IP-100,2013-03-06 17:02:00,
2013-03-06 12:07:00,34.0,33.0,29.61,ENE,67,10.0,16.0,95,0.06,,,0.14,Rainwise IP-100,2013-03-06 17:07:00,
2013-03-06 12:12:00,34.0,33.0,29.61,NNE,22,13.0,20.0,95,0.06,,,0.14,Rainwise IP-100,2013-03-06 17:12:00,
2013-03-06 12:17:00,35.0,33.0,29.61,NE,45,15.0,15.0,95,0.00,,,0.14,Rainwise IP-100,2013-03-06 17:17:00,
2013-03-06 12:22:00,35.0,33.0,29.61,NNE,22,12.0,20.0,95,0.00,,,0.14,Rainwise IP-100,2013-03-06 17:22:00,
2013-03-06 12:27:00,36.0,35.0,29.61,ENE,67,20.0,21.0,95,0.00,,,0.14,Rainwise IP-100,2013-03-06 17:27:00,
2013-03-06 12:32:00,36.0,35.0,29.61,NE,45,10.0,23.0,95,0.00,,,0.14,Rainwise IP-100,2013-03-06 17:32:00,
2013-03-06 12:37:00,36.0,35.0,29.61,NNE,22,6.0,20.0,95,0.00,,,0.14,Rainwise IP-100,2013-03-06 17:37:00,
2013-03-06 12:42:00,35.0,33.0,29.61,East,90,10.0,23.0,95,0.00,,,0.14,Rainwise IP-100,2013-03-06 17:42:00,
2013-03-06 12:47:00,35.0,33.0,29.62,ENE,67,15.0,22.0,95,0.06,,,0.15,Rainwise IP-100,2013-03-06 17:47:00,
2013-03-06 12:52:00,36.0,35.0,29.62,East,90,9.0,23.0,95,0.06,,,0.15,Rainwise IP-100,2013-03-06 17:52:00,
2013-03-06 12:57:00,36.0,35.0,29.61,SE,135,7.0,18.0,95,0.00,,,0.15,Rainwise IP-100,2013-03-06 17:57:00,
2013-03-06 13:02:00,36.0,35.0,29.61,NE,45,9.0,20.0,95,0.00,,,0.15,Rainwise IP-100,2013-03-06 18:02:00,
2013-03-06 13:07:00,36.0,35.0,29.61,ENE,67,18.0,19.0,95,0.00,,,0.15,Rainwise IP-100,2013-03-06 18:07:00,
2013-03-06 13:12:00,36.0,35.0,29.61,ENE,67,10.0,21.0,95,0.00,,,0.15,Rainwise IP-100,2013-03-06 18:12:00,
2013-03-06 13:17:00,36.0,35.0,29.61,NE,45,9.0,19.0,95,0.00,,,0.15,Rainwise IP-100,2013-03-06 18:17:00,
2013-03-06 13:22:00,36.0,35.0,29.61,NNE,22,8.0,19.0,94,0.00,,,0.15,Rainwise IP-100,2013-03-06 18:22:00,
2013-03-06 13:27:00,36.0,35.0,29.61,ENE,67,11.0,17.0,94,0.00,,,0.15,Rainwise IP-100,2013-03-06 18:27:00,
2013-03-06 13:33:00,36.0,35.0,29.61,East,90,5.0,12.0,93,0.00,,,0.15,Rainwise IP-100,2013-03-06 18:33:00,
2013-03-06 13:38:00,37.0,36.0,29.61,NE,45,8.0,17.0,96,0.00,,,0.15,Rainwise IP-100,2013-03-06 18:38:00,
2013-03-06 13:43:00,37.0,36.0,29.61,NE,45,2.0,20.0,96,0.00,,,0.15,Rainwise IP-100,2013-03-06 18:43:00,
2013-03-06 13:48:00,37.0,36.0,29.61,NE,45,6.0,19.0,96,0.00,,,0.15,Rainwise IP-100,2013-03-06 18:48:00,
2013-03-06 13:53:00,37.0,36.0,29.61,NNW,337,6.0,16.0,94,0.00,,,0.15,Rainwise IP-100,2013-03-06 18:53:00,
2013-03-06 13:58:00,37.0,36.0,29.60,NNW,337,10.0,20.0,94,0.00,,,0.15,Rainwise IP-100,2013-03-06 18:58:00,
2013-03-06 14:03:00,36.0,35.0,29.60,NE,45,13.0,27.0,95,0.00,,,0.15,Rainwise IP-100,2013-03-06 19:03:00,
2013-03-06 14:08:00,35.0,33.0,29.61,SSE,157,5.0,13.0,95,0.00,,,0.15,Rainwise IP-100,2013-03-06 19:08:00,
2013-03-06 14:13:00,35.0,33.0,29.61,ESE,112,4.0,15.0,95,0.06,,,0.16,Rainwise IP-100,2013-03-06 19:13:00,
2013-03-06 14:18:00,35.0,33.0,29.61,North,360,12.0,14.0,95,0.06,,,0.16,Rainwise IP-100,2013-03-06 19:18:00,
2013-03-06 14:23:00,36.0,35.0,29.61,NNW,337,10.0,16.0,95,0.00,,,0.16,Rainwise IP-100,2013-03-06 19:23:00,
2013-03-06 14:28:00,36.0,35.0,29.59,ENE,67,9.0,24.0,95,0.00,,,0.16,Rainwise IP-100,2013-03-06 19:28:00,
2013-03-06 14:33:00,36.0,35.0,29.59,ENE,67,14.0,28.0,93,0.00,,,0.16,Rainwise IP-100,2013-03-06 19:33:00,
2013-03-06 14:38:00,36.0,33.0,29.60,East,90,6.0,20.0,92,0.00,,,0.16,Rainwise IP-100,2013-03-06 19:38:00,
2013-03-06 14:43:00,36.0,33.0,29.60,North,360,12.0,17.0,91,0.00,,,0.16,Rainwise IP-100,2013-03-06 19:43:00,
2013-03-06 14:48:00,36.0,33.0,29.61,ESE,112,9.0,19.0,91,0.00,,,0.16,Rainwise IP-100,2013-03-06 19:48:00,
2013-03-06 14:53:00,36.0,32.0,29.61,North,360,15.0,25.0,87,0.00,,,0.16,Rainwise IP-100,2013-03-06 19:53:00,
2013-03-06 14:58:00,36.0,33.0,29.61,NNE,22,6.0,20.0,90,0.00,,,0.16,Rainwise IP-100,2013-03-06 19:58:00,
2013-03-06 15:03:00,36.0,33.0,29.61,SE,135,5.0,24.0,89,0.00,,,0.16,Rainwise IP-100,2013-03-06 20:03:00,
2013-03-06 15:08:00,36.0,32.0,29.61,ESE,112,6.0,19.0,86,0.00,,,0.16,Rainwise IP-100,2013-03-06 20:08:00,
2013-03-06 15:13:00,36.0,31.0,29.61,ENE,67,7.0,25.0,81,0.00,,,0.16,Rainwise IP-100,2013-03-06 20:13:00,
2013-03-06 15:18:00,37.0,31.0,29.59,ENE,67,16.0,32.0,78,0.06,,,0.17,Rainwise IP-100,2013-03-06 20:18:00,
2013-03-06 15:23:00,37.0,31.0,29.59,East,90,8.0,22.0,78,0.06,,,0.17,Rainwise IP-100,2013-03-06 20:23:00,
2013-03-06 15:28:00,37.0,31.0,29.60,East,90,10.0,23.0,79,0.00,,,0.17,Rainwise IP-100,2013-03-06 20:28:00,
2013-03-06 15:33:00,37.0,31.0,29.60,ENE,67,13.0,26.0,79,0.00,,,0.17,Rainwise IP-100,2013-03-06 20:33:00,
2013-03-06 15:38:00,37.0,31.0,29.59,North,360,10.0,25.0,75,0.00,,,0.17,Rainwise IP-100,2013-03-06 20:38:00,
2013-03-06 15:43:00,37.0,31.0,29.59,NE,45,10.0,24.0,75,0.00,,,0.17,Rainwise IP-100,2013-03-06 20:43:00,
2013-03-06 15:48:00,37.0,31.0,29.60,NE,45,13.0,27.0,79,0.00,,,0.17,Rainwise IP-100,2013-03-06 20:48:00,
2013-03-06 15:53:00,37.0,31.0,29.60,East,90,6.0,32.0,78,0.00,,,0.17,Rainwise IP-100,2013-03-06 20:53:00,
2013-03-06 15:58:00,37.0,31.0,29.60,North,360,7.0,19.0,78,0.00,,,0.17,Rainwise IP-100,2013-03-06 20:58:00,
2013-03-06 16:03:00,37.0,31.0,29.60,SE,135,6.0,19.0,78,0.00,,,0.17,Rainwise IP-100,2013-03-06 21:03:00,
2013-03-06 16:08:00,37.0,31.0,29.61,NE,45,15.0,20.0,78,0.00,,,0.17,Rainwise IP-100,2013-03-06 21:08:00,
2013-03-06 16:13:00,36.0,31.0,29.61,ENE,67,6.0,20.0,79,0.00,,,0.17,Rainwise IP-100,2013-03-06 21:13:00,
2013-03-06 16:18:00,36.0,31.0,29.61,NNE,22,4.0,16.0,83,0.00,,,0.17,Rainwise IP-100,2013-03-06 21:18:00,
2013-03-06 16:23:00,36.0,32.0,29.61,East,90,10.0,20.0,85,0.00,,,0.17,Rainwise IP-100,2013-03-06 21:23:00,
2013-03-06 16:28:00,36.0,31.0,29.61,East,90,10.0,18.0,83,0.00,,,0.17,Rainwise IP-100,2013-03-06 21:28:00,
2013-03-06 16:33:00,36.0,32.0,29.61,ENE,67,14.0,26.0,85,0.00,,,0.17,Rainwise IP-100,2013-03-06 21:33:00,
2013-03-06 16:38:00,35.0,32.0,29.62,ENE,67,6.0,18.0,88,0.00,,,0.17,Rainwise IP-100,2013-03-06 21:38:00,
2013-03-06 16:43:00,35.0,32.0,29.62,East,90,7.0,17.0,88,0.00,,,0.17,Rainwise IP-100,2013-03-06 21:43:00,
2013-03-06 16:48:00,35.0,31.0,29.61,ENE,67,6.0,24.0,87,0.00,,,0.17,Rainwise IP-100,2013-03-06 21:48:00,
2013-03-06 16:53:00,35.0,32.0,29.61,ENE,67,14.0,23.0,89,0.00,,,0.17,Rainwise IP-100,2013-03-06 21:53:00,
2013-03-06 16:58:00,35.0,32.0,29.61,East,90,9.0,21.0,89,0.00,,,0.17,Rainwise IP-100,2013-03-06 21:58:00,
2013-03-06 17:03:00,35.0,32.0,29.61,NNE,22,16.0,24.0,88,0.00,,,0.17,Rainwise IP-100,2013-03-06 22:03:00,
2013-03-06 17:08:00,35.0,32.0,29.61,NE,45,6.0,19.0,89,0.00,,,0.17,Rainwise IP-100,2013-03-06 22:08:00,
2013-03-06 17:13:00,35.0,32.0,29.61,NW,315,10.0,17.0,89,0.00,,,0.17,Rainwise IP-100,2013-03-06 22:13:00,
2013-03-06 17:18:00,35.0,32.0,29.61,ENE,67,13.0,28.0,90,0.00,,,0.17,Rainwise IP-100,2013-03-06 22:18:00,
2013-03-06 17:23:00,34.0,32.0,29.61,NE,45,6.0,18.0,92,0.00,,,0.17,Rainwise IP-100,2013-03-06 22:23:00,
2013-03-06 17:28:00,34.0,32.0,29.63,ESE,112,6.0,18.0,91,0.00,,,0.17,Rainwise IP-100,2013-03-06 22:28:00,
2013-03-06 17:33:00,34.0,32.0,29.63,ESE,112,4.0,13.0,92,0.00,,,0.17,Rainwise IP-100,2013-03-06 22:33:00,
2013-03-06 17:38:00,35.0,32.0,29.63,ENE,67,9.0,19.0,91,0.00,,,0.17,Rainwise IP-100,2013-03-06 22:38:00,
2013-03-06 17:43:00,34.0,32.0,29.63,NE,45,10.0,23.0,92,0.00,,,0.17,Rainwise IP-100,2013-03-06 22:43:00,
2013-03-06 17:48:00,34.0,32.0,29.63,ENE,67,12.0,17.0,91,0.00,,,0.17,Rainwise IP-100,2013-03-06 22:48:00,
2013-03-06 17:53:00,34.0,32.0,29.63,East,90,10.0,22.0,90,0.00,,,0.17,Rainwise IP-100,2013-03-06 22:53:00,
2013-03-06 17:58:00,35.0,32.0,29.63,East,90,7.0,20.0,89,0.00,,,0.17,Rainwise IP-100,2013-03-06 22:58:00,
2013-03-06 18:03:00,35.0,32.0,29.63,North,360,10.0,13.0,89,0.00,,,0.17,Rainwise IP-100,2013-03-06 23:03:00,
2013-03-06 18:08:00,34.0,32.0,29.63,ESE,112,4.0,15.0,91,0.00,,,0.17,Rainwise IP-100,2013-03-06 23:08:00,
2013-03-06 18:13:00,34.0,32.0,29.63,NNE,22,13.0,19.0,92,0.00,,,0.17,Rainwise IP-100,2013-03-06 23:13:00,
2013-03-06 18:18:00,34.0,33.0,29.64,NE,45,11.0,16.0,93,0.00,,,0.17,Rainwise IP-100,2013-03-06 23:18:00,
2013-03-06 18:23:00,34.0,32.0,29.64,East,90,5.0,17.0,92,0.00,,,0.17,Rainwise IP-100,2013-03-06 23:23:00,
2013-03-06 18:28:00,34.0,32.0,29.63,NE,45,11.0,15.0,91,0.00,,,0.17,Rainwise IP-100,2013-03-06 23:28:00,
2013-03-06 18:33:00,34.0,33.0,29.63,ENE,67,9.0,25.0,93,0.00,,,0.17,Rainwise IP-100,2013-03-06 23:33:00,
2013-03-06 18:38:00,34.0,33.0,29.63,North,360,12.0,17.0,95,0.00,,,0.17,Rainwise IP-100,2013-03-06 23:38:00,
2013-03-06 18:43:00,33.0,32.0,29.63,NNW,337,9.0,15.0,95,0.00,,,0.17,Rainwise IP-100,2013-03-06 23:43:00,
2013-03-06 18:48:00,33.0,32.0,29.62,North,360,12.0,23.0,95,0.00,,,0.17,Rainwise IP-100,2013-03-06 23:48:00,
2013-03-06 18:53:00,33.0,32.0,29.62,ESE,112,3.0,20.0,95,0.00,,,0.17,Rainwise IP-100,2013-03-06 23:53:00,
2013-03-06 18:58:00,33.0,32.0,29.62,NE,45,9.0,19.0,95,0.00,,,0.17,Rainwise IP-100,2013-03-06 23:58:00,
2013-03-06 19:03:00,33.0,32.0,29.62,East,90,9.0,19.0,95,0.00,,,0.17,Rainwise IP-100,2013-03-07 00:03:00,
2013-03-06 19:08:00,33.0,32.0,29.62,NE,45,10.0,21.0,95,0.00,,,0.17,Rainwise IP-100,2013-03-07 00:08:00,
2013-03-06 19:13:00,33.0,32.0,29.62,ENE,67,5.0,19.0,95,0.00,,,0.17,Rainwise IP-100,2013-03-07 00:13:00,
2013-03-06 19:18:00,34.0,33.0,29.61,ENE,67,12.0,23.0,95,0.00,,,0.17,Rainwise IP-100,2013-03-07 00:18:00,
2013-03-06 19:23:00,34.0,33.0,29.61,NNW,337,6.0,22.0,94,0.00,,,0.17,Rainwise IP-100,2013-03-07 00:23:00,
2013-03-06 19:28:00,34.0,33.0,29.62,ENE,67,15.0,18.0,95,0.00,,,0.17,Rainwise IP-100,2013-03-07 00:28:00,
2013-03-06 19:33:00,33.0,32.0,29.62,East,90,6.0,17.0,95,0.00,,,0.17,Rainwise IP-100,2013-03-07 00:33:00,
2013-03-06 19:38:00,33.0,32.0,29.63,ENE,67,6.0,12.0,95,0.00,,,0.17,Rainwise IP-100,2013-03-07 00:38:00,
2013-03-06 19:43:00,33.0,32.0,29.63,ESE,112,2.0,17.0,95,0.06,,,0.18,Rainwise IP-100,2013-03-07 00:43:00,
2013-03-06 19:48:00,33.0,32.0,29.63,NNE,22,15.0,22.0,95,0.06,,,0.18,Rainwise IP-100,2013-03-07 00:48:00,
2013-03-06 19:53:00,33.0,32.0,29.63,ENE,67,9.0,19.0,95,0.00,,,0.18,Rainwise IP-100,2013-03-07 00:53:00,
2013-03-06 19:58:00,33.0,32.0,29.64,ENE,67,17.0,22.0,95,0.00,,,0.18,Rainwise IP-100,2013-03-07 00:58:00,
2013-03-06 20:03:00,33.0,32.0,29.64,ENE,67,15.0,23.0,95,0.00,,,0.18,Rainwise IP-100,2013-03-07 01:03:00,
2013-03-06 20:08:00,33.0,32.0,29.63,North,360,9.0,23.0,95,0.00,,,0.18,Rainwise IP-100,2013-03-07 01:08:00,
2013-03-06 20:13:00,33.0,32.0,29.63,East,90,12.0,21.0,95,0.00,,,0.18,Rainwise IP-100,2013-03-07 01:13:00,
2013-03-06 20:18:00,33.0,32.0,29.63,NNE,22,12.0,19.0,95,0.00,,,0.18,Rainwise IP-100,2013-03-07 01:18:00,
2013-03-06 20:23:00,33.0,32.0,29.63,North,360,11.0,13.0,95,0.00,,,0.18,Rainwise IP-100,2013-03-07 01:23:00,
2013-03-06 20:28:00,32.0,31.0,29.63,North,360,10.0,16.0,95,0.00,,,0.18,Rainwise IP-100,2013-03-07 01:28:00,
2013-03-06 20:33:00,32.0,31.0,29.63,North,360,7.0,16.0,95,0.00,,,0.18,Rainwise IP-100,2013-03-07 01:33:00,
2013-03-06 20:38:00,32.0,31.0,29.64,NNW,337,10.0,18.0,95,0.00,,,0.18,Rainwise IP-100,2013-03-07 01:38:00,
2013-03-06 20:43:00,32.0,31.0,29.64,NE,45,7.0,14.0,95,0.00,,,0.18,Rainwise IP-100,2013-03-07 01:43:00,
2013-03-06 20:48:00,32.0,31.0,29.64,North,360,8.0,16.0,95,0.00,,,0.18,Rainwise IP-100,2013-03-07 01:48:00,
2013-03-06 20:53:00,32.0,31.0,29.64,North,360,11.0,18.0,95,0.00,,,0.18,Rainwise IP-100,2013-03-07 01:53:00,
2013-03-06 20:58:00,32.0,31.0,29.62,WNW,292,5.0,26.0,95,0.00,,,0.18,Rainwise IP-100,2013-03-07 01:58:00,
2013-03-06 21:03:00,32.0,31.0,29.62,East,90,6.0,20.0,95,0.00,,,0.18,Rainwise IP-100,2013-03-07 02:03:00,
2013-03-06 21:08:00,32.0,31.0,29.63,NE,45,5.0,15.0,95,0.00,,,0.18,Rainwise IP-100,2013-03-07 02:08:00,
2013-03-06 21:13:00,32.0,31.0,29.63,NE,45,9.0,14.0,95,0.00,,,0.18,Rainwise IP-100,2013-03-07 02:13:00,
2013-03-06 21:18:00,32.0,31.0,29.63,NNE,22,9.0,16.0,95,0.00,,,0.18,Rainwise IP-100,2013-03-07 02:18:00,
2013-03-06 21:23:00,32.0,31.0,29.63,North,360,6.0,16.0,95,0.00,,,0.18,Rainwise IP-100,2013-03-07 02:23:00,
2013-03-06 21:28:00,32.0,31.0,29.62,ENE,67,17.0,17.0,95,0.00,,,0.18,Rainwise IP-100,2013-03-07 02:28:00,
2013-03-06 21:33:00,32.0,31.0,29.62,ENE,67,6.0,20.0,95,0.00,,,0.18,Rainwise IP-100,2013-03-07 02:33:00,
2013-03-06 21:38:00,32.0,31.0,29.62,East,90,8.0,19.0,95,0.00,,,0.18,Rainwise IP-100,2013-03-07 02:38:00,
2013-03-06 21:43:00,32.0,31.0,29.62,NNE,22,6.0,12.0,95,0.00,,,0.18,Rainwise IP-100,2013-03-07 02:43:00,
2013-03-06 21:48:00,32.0,31.0,29.62,ENE,67,7.0,17.0,95,0.00,,,0.18,Rainwise IP-100,2013-03-07 02:48:00,
2013-03-06 21:53:00,32.0,31.0,29.62,NNE,22,11.0,17.0,95,0.00,,,0.18,Rainwise IP-100,2013-03-07 02:53:00,
2013-03-06 21:58:00,32.0,31.0,29.61,ENE,67,10.0,17.0,95,0.00,,,0.18,Rainwise IP-100,2013-03-07 02:58:00,
2013-03-06 22:03:00,32.0,31.0,29.61,ENE,67,9.0,16.0,95,0.00,,,0.18,Rainwise IP-100,2013-03-07 03:03:00,
2013-03-06 22:08:00,32.0,31.0,29.61,NNE,22,8.0,21.0,95,0.00,,,0.18,Rainwise IP-100,2013-03-07 03:08:00,
2013-03-06 22:13:00,32.0,31.0,29.61,NE,45,9.0,22.0,95,0.00,,,0.18,Rainwise IP-100,2013-03-07 03:13:00,
2013-03-06 22:18:00,32.0,31.0,29.61,NNE,22,5.0,19.0,95,0.00,,,0.18,Rainwise IP-100,2013-03-07 03:18:00,
2013-03-06 22:23:00,32.0,31.0,29.61,North,360,8.0,21.0,95,0.00,,,0.18,Rainwise IP-100,2013-03-07 03:23:00,
2013-03-06 22:28:00,32.0,31.0,29.62,North,360,7.0,15.0,95,0.00,,,0.18,Rainwise IP-100,2013-03-07 03:28:00,
2013-03-06 22:33:00,32.0,31.0,29.62,ENE,67,6.0,18.0,95,0.00,,,0.18,Rainwise IP-100,2013-03-07 03:33:00,
2013-03-06 22:38:00,32.0,31.0,29.61,East,90,7.0,21.0,95,0.00,,,0.18,Rainwise IP-100,2013-03-07 03:38:00,
2013-03-06 22:43:00,32.0,31.0,29.61,NE,45,9.0,17.0,95,0.00,,,0.18,Rainwise IP-100,2013-03-07 03:43:00,
2013-03-06 22:48:00,32.0,31.0,29.61,NE,45,11.0,19.0,95,0.00,,,0.18,Rainwise IP-100,2013-03-07 03:48:00,
2013-03-06 22:53:00,32.0,31.0,29.61,NE,45,10.0,19.0,95,0.00,,,0.18,Rainwise IP-100,2013-03-07 03:53:00,
2013-03-06 22:58:00,32.0,31.0,29.61,North,360,7.0,15.0,95,0.00,,,0.18,Rainwise IP-100,2013-03-07 03:58:00,
2013-03-06 23:03:00,32.0,31.0,29.61,NE,45,7.0,16.0,95,0.00,,,0.18,Rainwise IP-100,2013-03-07 04:03:00,
2013-03-06 23:08:00,32.0,31.0,29.61,NNE,22,13.0,21.0,95,0.00,,,0.18,Rainwise IP-100,2013-03-07 04:08:00,
2013-03-06 23:13:00,32.0,31.0,29.61,North,360,11.0,16.0,95,0.00,,,0.18,Rainwise IP-100,2013-03-07 04:13:00,
2013-03-06 23:18:00,32.0,31.0,29.60,NNE,22,10.0,20.0,95,0.00,,,0.18,Rainwise IP-100,2013-03-07 04:18:00,
2013-03-06 23:23:00,32.0,31.0,29.60,ENE,67,9.0,19.0,95,0.00,,,0.18,Rainwise IP-100,2013-03-07 04:23:00,
2013-03-06 23:28:00,32.0,31.0,29.60,NNE,22,6.0,17.0,95,0.00,,,0.18,Rainwise IP-100,2013-03-07 04:28:00,
2013-03-06 23:33:00,32.0,31.0,29.60,NE,45,13.0,16.0,95,0.00,,,0.18,Rainwise IP-100,2013-03-07 04:33:00,
2013-03-06 23:38:00,32.0,31.0,29.61,East,90,6.0,20.0,95,0.00,,,0.18,Rainwise IP-100,2013-03-07 04:38:00,
2013-03-06 23:43:00,32.0,31.0,29.61,NE,45,13.0,13.0,95,0.00,,,0.18,Rainwise IP-100,2013-03-07 04:43:00,
2013-03-06 23:48:00,32.0,31.0,29.61,East,90,4.0,18.0,95,0.00,,,0.18,Rainwise IP-100,2013-03-07 04:48:00,
2013-03-06 23:54:00,32.0,31.0,29.61,North,360,9.0,19.0,95,0.00,,,0.18,Rainwise IP-100,2013-03-07 04:54:00,
2013-03-06 23:59:00,32.0,31.0,29.61,NE,45,7.0,20.0,95,0.00,,,0.18,Rainwise IP-100,2013-03-07 04:59:00,